Regional Weather Roundup
Issued by NWS Sterling, VA

Home | Current Version | Previous Version | Graphics & Text | Print | Product List | Glossary On
Versions: 1 2 3 4 5 6 7 8 9 10 11 12 13 14 15 16 17 18 19 20 21 22 23 24 25 26 27 28 29 30 31 32 33 34 35 36 37 38 39 40 41 42 43 44 45 46 47 48 49 50
000
ASUS41 KLWX 241210
RWRLWX

REGIONAL WEATHER ROUNDUP
NATIONAL WEATHER SERVICE BALTIMORE MD/WASHINGTON DC
700 AM EST MON NOV 24 2014

Note: "FAIR" indicates few or no clouds below 12,000 feet
with no significant weather and/or obstructions to visibility.
 TC=TEMPERATURE CELSIUS

 * =Non NWS site. Station does not report precipitation (e.g. rain,
    snow, etc.), thunder, or fog.

DCZ001-MDZ009-015-VAZ040>042-051-053>054-241300-
WASHINGTON METRO

CITY           SKY/WX    TMP DP  RH WIND       PRES   REMARKS
WASHINGTON NAT MOCLDY    64  57  78 S12       29.67R
DULLES         MOCLDY    61  59  93 S7        29.66R
ANDREWS AFB    PTCLDY    65  61  87 S15       29.68R
FT BELVOIR     MOCLDY    64  60  84 SW2       29.68R
QUANTICO       PTCLDY    54  52  93 SW10      29.69R
COLLEGE PARK*  MOCLDY    66  61  82 S8        29.66R
LEESBURG*      PTCLDY    61  61 100 SW13G21   29.66R
MANASSAS*      CLOUDY    64  63  94 S9G18     29.67R
GAITHERSBURG*  PTCLDY    63  57  82 S9        29.68S

$$

MDZ006>007-011-014-241300-
BALTIMORE METRO

CITY           SKY/WX    TMP DP  RH WIND       PRES   REMARKS
BWI AIRPORT    MOCLDY    65  60  84 SW10      29.66R
MD SCIENCE CTR   N/A     57  57 100 MISG      29.67S
MARTIN STATE   CLOUDY    57  57 100 S9G17     29.68S FOG
ANNAPOLIS      CLOUDY    56  55  97 S15       29.68R FOG
FORT MEADE*    MOCLDY    63  59  88 S7        29.69R

$$

MDZ012-015-019>023-241300-
MARYLAND EASTERN SHORE

CITY           SKY/WX    TMP DP  RH WIND       PRES   REMARKS
OCEAN CITY     LGT RAIN  61  60  97 SW15G25   29.77S FOG
SALISBURY      CLOUDY    69  64  84 S20G31    29.74F
BAY BRIDGE AP*   N/A     61  61 100 S14G20    29.68S
CAMBRIDGE*     CLOUDY    63  61  94 S10G20    29.72S
EASTON*        CLOUDY    64  64 100 S16G32    29.74S

$$

MDZ017>025-241300-
SOUTHERN MARYLAND

CITY           SKY/WX    TMP DP  RH WIND       PRES   REMARKS
PATUXENT RIVER PTCLDY    64  61  90 S6        29.71R
ST INIGOES     MOCLDY    65  62  90 S8        29.71S
LEONARDTOWN*   CLOUDY    64  61  88 S6        29.73S

$$

MDZ003>005-241300-
NORTH CENTRAL MARYLAND

CITY           SKY/WX    TMP DP  RH WIND       PRES   REMARKS
FREDERICK*     PTCLDY    64  59  82 SW13      29.66R
HAGERSTOWN APT CLEAR     59  55  87 S12       29.59S
WESTMINSTER*   PTCLDY    61  59  94 S10G17    29.64S

$$

MDZ501>502-241300-
WESTERN MARYLAND

CITY           SKY/WX    TMP DP  RH WIND       PRES   REMARKS
OAKLAND*       MOCLDY    55  46  71 SW13G23   29.57R
CUMBERLAND*    CLOUDY    46  46 100 CALM      29.62R VSB<1/4

$$

VAZ025>031-241300-
SHENANDOAH VALLEY

CITY           SKY/WX    TMP DP  RH WIND       PRES   REMARKS
WINCHESTER*    FOG       46  43  87 CALM      29.62S VSB 1/2
FRONT ROYAL*   FAIR      50  48  93 CALM      29.61R
LURAY*         FAIR      55  55 100 S3        29.63R
NEW MARKET*    FAIR      52  50  95 SW7       29.63R
STAUNTON*      CLEAR     51  48  92 SW6       29.67R
WAYNESBORO*    FAIR      56  51  84 S10       29.65S

$$

WVZ021-048>050-054>055-241300-
EASTERN WEST VIRGINIA PANHANDLE

CITY           SKY/WX    TMP DP  RH WIND       PRES   REMARKS
MARTINSBURG    CLEAR     52  49  89 S3        29.61S
PETERSBURG*    CLEAR     58  51  78 S13       29.60R

$$

VAZ036>039-050-241300-
CENTRAL FOOTHILLS

CITY           SKY/WX    TMP DP  RH WIND       PRES   REMARKS
CHARLOTTESVILL PTCLDY    58  54  86 S15       29.68R
CULPEPER*      MOCLDY    61  57  88 SW8       29.68R
ORANGE*        CLEAR     63  55  77 S12G18    29.70R
GORDONSVILLE*  FAIR      59  56  88 SW13G20   29.68R
WARRENTON*     MOCLDY    64  63  96 SW8       29.67R

$$

VAZ055>057-241300-
NORTH AND CENTRAL PIEDMONT

CITY           SKY/WX    TMP DP  RH WIND       PRES   REMARKS
FREDERICKSBRG* PTCLDY    66  61  82 S14G21    29.68R
STAFFORD*      PTCLDY    64  64 100 S5        29.72R

$$

NCZ024-NYZ072-PAZ021-071-VAZ022-071-241300-
OTHER REGIONAL OBSERVATIONS

CITY           SKY/WX    TMP DP  RH WIND       PRES   REMARKS
NEW YORK CITY  CLOUDY    60  58  92 S8        29.74R
PHILADELPHIA   MOCLDY    63  60  90 S14       29.69S
PITTSBURGH     PTCLDY    58  53  84 S10       29.44R
ROANOKE        FOG       48  47  96 CALM      29.73R VSB 1/4
RICHMOND       PTCLDY    66  60  81 S17       29.72R
RALEIGH        PTCLDY    61  57  87 SW10      29.80R

$$

ANZ530>537-241300-
MARINE OBSERVATIONS

STATION/POSITION TIME  TEMP    WIND        PRES
                       AIR SEA DIR/SP/G
                 (UTC) (F)     (DEG/KT/KT) (MB)
THOMAS PT LIGHT  1200   55 48  170/ 22/ 24 1005.8R
BALT KEY BRIDGE  1200   59     150/ 13/ 14 1003.9F
COVE POINT       1200   54     190/ 12/ 13 1006.2S
LEWISETTA        1200   65 45  200/ 12/ 15 1005.9S
SOLOMONS ISLAND  1200      49                N/A
PINEY POINT      1200          210/ 10/ 11   N/A

$$




USA.gov is the U.S. government's official web portal to all federal, state and local government web resources and services.